EW6866 Weather Reports


time (UTC)temp
C
wind
direction
speed
KPH
gust
KPH
rain 1hr
cm
rain 24hr
cm
rain mn
cm
humidity
%
barometer
mb
20260904190004 36 198 1.6 14.5 0.00 0.00 0.00 64 1011.9
20260904184504 35 223 3.2 12.9 0.00 0.00 0.00 65 1012.0
20260904183025 35 184 1.6 9.7 0.00 0.00 0.00 65 1012.2
20260904181504 35 170 1.6 8.0 0.00 0.00 0.00 66 1012.4
20260904180004 36 201 1.6 6.4 0.00 0.00 0.00 66 1012.7
20260904174504 35 193 1.6 6.4 0.00 0.00 0.00 67 1012.7
20260904173004 35 179 1.6 11.3 0.00 0.00 0.00 68 1012.9
20260904171504 35 215 1.6 9.7 0.00 0.00 0.00 67 1013.0
20260904170004 35 208 1.6 11.3 0.00 0.00 0.00 68 1013.1
20260904164504 34 184 1.6 8.0 0.00 0.00 0.00 69 1013.2
20260904163004 34 177 3.2 9.7 0.00 0.00 0.00 70 1013.4
20260904161504 34 213 1.6 9.7 0.00 0.00 0.00 69 1013.6
20260904160004 33 171 1.6 6.4 0.00 0.00 0.00 71 1013.6
20260904154525 33 137 1.6 8.0 0.00 0.00 0.00 71 1013.7
20260904153004 32 149 3.2 9.7 0.00 0.00 0.00 73 1013.6
20260904151504 32 179 3.2 9.7 0.00 0.00 0.00 73 1013.6
20260904150004 31 148 1.6 9.7 0.00 0.00 0.00 76 1013.8
20260904144524 31 167 1.6 8.0 0.00 0.00 0.00 78 1013.8
20260904143025 30 205 1.6 6.4 0.00 0.00 0.00 80 1013.9
20260904141503 30 163 1.6 9.7 0.00 0.00 0.00 81 1013.9
20260904140025 29 154 0.0 8.0 0.00 0.00 0.00 82 1013.8
20260904134504 28 188 0.0 6.4 0.00 0.00 0.00 82 1013.8
20260904133004 28 164 0.0 6.4 0.00 0.00 0.00 84 1013.8
20260904131504 27 181 0.0 6.4 0.00 0.00 0.00 85 1013.6
20260904130004 27 153 0.0 6.4 0.00 0.00 0.00 88 1014.0
20260904124503 27 147 0.0 8.0 0.00 0.00 0.00 89 1014.2
20260904123004 26 161 0.0 6.4 0.00 0.00 0.00 91 1014.1
20260904121504 26 140 0.0 6.4 0.00 0.00 0.00 92 1014.4
20260904120004 26 163 0.0 4.8 0.00 0.00 0.00 93 1014.5
20260904114525 26 0 0.0 0.0 0.00 0.00 0.00 93 1014.6
20260904113024 25 175 0.0 3.2 0.00 0.00 0.00 93 1014.3
20260904111504 25 169 0.0 1.6 0.00 0.00 0.00 94 1014.2
20260904110004 25 123 0.0 4.8 0.00 0.00 0.00 93 1013.9
20260904104503 25 163 0.0 8.0 0.00 0.00 0.00 94 1013.6
20260904103003 25 124 0.0 4.8 0.00 0.00 0.00 94 1013.9
20260904101504 25 163 0.0 1.6 0.00 0.00 0.00 93 1013.6
20260904100004 25 0 0.0 0.0 0.00 0.00 0.00 93 1014.0
20260904094504 25 103 0.0 1.6 0.00 0.00 0.00 92 1014.0
20260904093003 26 162 0.0 4.8 0.00 0.00 0.00 92 1013.9
20260904091504 26 166 0.0 8.0 0.00 0.00 0.00 91 1014.0
20260904090004 26 115 0.0 1.6 0.00 0.00 0.00 92 1014.1
20260904084503 26 227 0.0 6.4 0.00 0.00 0.00 92 1013.7
20260904083004 26 197 0.0 3.2 0.00 0.00 0.00 92 1013.8
20260904081503 26 227 0.0 1.6 0.00 0.00 0.00 92 1013.7
20260904080003 26 142 0.0 4.8 0.00 0.00 0.00 92 1013.7
20260904074505 26 133 0.0 9.7 0.00 0.00 0.00 91 1013.7
20260904073005 26 238 0.0 3.2 0.00 0.00 0.00 92 1013.8
20260904071505 26 152 0.0 3.2 0.00 0.00 0.00 92 1013.7
20260904070005 26 135 0.0 1.6 0.00 0.00 0.00 92 1013.6
20260904064526 26 132 0.0 4.8 0.00 0.00 0.00 92 1013.5
20260904063005 26 220 0.0 1.6 0.00 0.00 0.00 92 1013.7
20260904061505 26 280 0.0 1.6 0.00 0.00 0.00 92 1014.0
20260904060026 26 114 0.0 1.6 0.00 0.00 0.00 92 1014.2
20260904054505 26 131 0.0 1.6 0.00 0.00 0.00 91 1014.3
20260904053005 26 227 0.0 3.2 0.00 0.00 0.00 91 1014.5
20260904051505 26 217 0.0 4.8 0.00 0.00 0.00 90 1014.7
20260904050005 26 213 1.6 6.4 0.00 0.00 0.00 90 1014.7
20260904044505 26 217 0.0 9.7 0.00 0.00 0.00 89 1014.6
20260904043005 27 171 0.0 4.8 0.00 0.00 0.00 88 1014.8
20260904041505 27 166 0.0 6.4 0.00 0.00 0.00 88 1014.8
20260904040007 27 180 1.6 6.4 0.00 0.00 0.00 87 1014.7
20260904034505 27 199 0.0 6.4 0.00 0.00 0.00 87 1014.6
20260904033005 27 227 0.0 1.6 0.00 0.00 0.00 86 1014.7
20260904031505 27 242 1.6 8.0 0.00 0.00 0.00 85 1014.8
20260904030005 27 195 1.6 6.4 0.00 0.00 0.00 85 1014.8
20260904024505 27 152 1.6 6.4 0.00 0.00 0.00 85 1014.8
20260904023005 28 234 1.6 6.4 0.00 0.00 0.00 84 1015.0
20260904021505 28 209 1.6 9.7 0.00 0.00 0.00 84 1015.1
20260904020025 28 179 1.6 6.4 0.00 0.00 0.00 84 1015.2
20260904014504 28 199 1.6 11.3 0.00 0.00 0.00 83 1015.2
20260904013005 28 174 0.0 3.2 0.00 0.00 0.00 83 1015.0
20260904011505 29 202 0.0 6.4 0.00 0.00 0.00 83 1014.9
20260904010004 29 246 0.0 6.4 0.00 0.00 0.00 83 1014.8
20260904004505 30 222 0.0 6.4 0.00 0.00 0.00 84 1014.4
20260904003005 30 187 0.0 6.4 0.00 0.00 0.00 85 1014.1
20260904001505 30 269 0.0 1.6 0.00 0.00 0.00 84 1013.7
20260904000025 30 137 0.0 1.6 0.00 0.00 0.00 83 1013.5
20260903234506 30 0 0.0 0.0 0.00 0.00 0.00 81 1013.3
20260903233005 31 141 0.0 1.6 0.00 0.00 0.00 79 1013.2
20260903231504 31 0 0.0 0.0 0.00 0.00 0.00 78 1013.2
20260903230005 32 139 0.0 1.6 0.00 0.00 0.00 76 1013.3
20260903224505 32 151 0.0 1.6 0.00 0.00 0.00 75 1013.1
20260903223025 32 132 0.0 3.2 0.00 0.00 0.00 73 1013.2
20260903221504 33 156 0.0 4.8 0.00 0.00 0.00 71 1013.2
20260903220004 33 200 0.0 6.4 0.00 0.00 0.00 69 1013.3
20260903214505 33 190 1.6 6.4 0.00 0.00 0.00 68 1013.3
20260903213004 35 190 1.6 9.7 0.00 0.00 0.00 65 1013.3
20260903211504 35 180 1.6 8.0 0.00 0.00 0.00 62 1013.5
20260903210005 36 164 0.0 8.0 0.00 0.00 0.00 62 1013.6
20260903204504 35 178 1.6 11.3 0.00 0.00 0.00 62 1013.6
20260903203004 36 182 1.6 4.8 0.00 0.00 0.00 62 1013.7
20260903201504 36 171 1.6 6.4 0.00 0.00 0.00 61 1014.0
20260903200026 36 173 0.0 8.0 0.00 0.00 0.00 61 1014.2
20260903194504 36 159 1.6 9.7 0.00 0.00 0.00 63 1014.3
20260903193005 35 196 1.6 8.0 0.00 0.00 0.00 63 1014.5
20260903191504 35 174 1.6 9.7 0.00 0.00 0.00 65 1014.5